| time (UTC) | temp F | wind direction | speed knots | gust knots | rain 1hr in | rain 24hr in | rain mn in | humidity % | barometer mb |
| 20260507200056 | 52 | 140 | 0.0 | 0.0 | 0.00 | 0.00 | 0.00 | 77 | 1012.8 |
| 20260507195557 | 52 | 140 | 0.0 | 0.0 | 0.00 | 0.00 | 0.00 | 77 | 1012.8 |
| 20260507195057 | 52 | 140 | 0.0 | 0.0 | 0.00 | 0.00 | 0.00 | 77 | 1012.7 |
| 20260507194559 | 52 | 140 | 0.0 | 0.0 | 0.00 | 0.00 | 0.00 | 76 | 1012.7 |
| 20260507194056 | 52 | 140 | 0.0 | 0.0 | 0.00 | 0.00 | 0.00 | 78 | 1012.6 |
| 20260507193557 | 53 | 140 | 0.0 | 0.0 | 0.00 | 0.00 | 0.00 | 78 | 1012.6 |
| 20260507193055 | 53 | 140 | 0.0 | 0.0 | 0.00 | 0.00 | 0.00 | 77 | 1012.6 |
| 20260507192555 | 53 | 140 | 0.0 | 0.0 | 0.00 | 0.00 | 0.00 | 76 | 1012.6 |
| 20260507192056 | 53 | 140 | 0.0 | 0.0 | 0.00 | 0.00 | 0.00 | 75 | 1012.6 |
| 20260507191907 | 53 | 140 | 0.0 | 0.0 | 0.00 | 0.00 | 0.00 | 74 | 1012.6 |
| 20260507191407 | 53 | 139 | 0.0 | 0.0 | 0.00 | 0.00 | 0.00 | 75 | 1012.6 |
| 20260507190732 | 54 | 139 | 0.0 | 0.0 | 0.00 | 0.00 | 0.00 | 75 | 1012.6 |
| 20260507190658 | 54 | 139 | 0.0 | 0.0 | 0.00 | 0.00 | 0.00 | 75 | 1012.6 |
| 20260507185556 | 54 | 139 | 0.0 | 0.0 | 0.00 | 0.00 | 0.00 | 76 | 1012.6 |
| 20260507185055 | 54 | 139 | 0.0 | 0.0 | 0.00 | 0.00 | 0.00 | 75 | 1012.6 |
| 20260507184910 | 54 | 139 | 0.0 | 0.0 | 0.00 | 0.00 | 0.00 | 74 | 1012.6 |
| 20260507184056 | 54 | 139 | 0.0 | 0.0 | 0.00 | 0.00 | 0.00 | 75 | 1012.6 |
| 20260507183558 | 54 | 139 | 0.0 | 0.0 | 0.00 | 0.00 | 0.00 | 74 | 1012.6 |
| 20260507183051 | 54 | 139 | 0.0 | 0.0 | 0.00 | 0.00 | 0.00 | 74 | 1012.6 |
| 20260507182912 | 55 | 134 | 0.0 | 0.0 | 0.00 | 0.00 | 0.00 | 73 | 1012.6 |
| 20260507182053 | 55 | 134 | 0.0 | 0.0 | 0.00 | 0.00 | 0.00 | 73 | 1012.6 |
| 20260507181550 | 55 | 136 | 0.0 | 0.0 | 0.00 | 0.00 | 0.00 | 73 | 1012.5 |
| 20260507181048 | 55 | 104 | 0.0 | 0.0 | 0.00 | 0.00 | 0.00 | 73 | 1012.5 |
| 20260507180550 | 55 | 220 | 0.0 | 0.0 | 0.00 | 0.00 | 0.00 | 74 | 1012.5 |
| 20260507180049 | 55 | 283 | 0.0 | 0.0 | 0.00 | 0.00 | 0.00 | 75 | 1012.5 |
| 20260507175548 | 56 | 129 | 0.0 | 0.0 | 0.00 | 0.00 | 0.00 | 75 | 1012.4 |
| 20260507175045 | 56 | 125 | 0.0 | 0.0 | 0.00 | 0.00 | 0.00 | 75 | 1012.5 |
| 20260507174545 | 56 | 131 | 0.0 | 0.0 | 0.00 | 0.00 | 0.00 | 74 | 1012.4 |
| 20260507174043 | 56 | 143 | 0.0 | 0.0 | 0.00 | 0.00 | 0.00 | 74 | 1012.4 |
| 20260507173734 | 56 | 180 | 0.0 | 0.0 | 0.00 | 0.00 | 0.00 | 76 | 1012.5 |
| 20260507173647 | 56 | 72 | 0.0 | 0.0 | 0.00 | 0.00 | 0.00 | 75 | 1012.4 |
| 20260507172542 | 56 | 178 | 0.0 | 0.0 | 0.00 | 0.00 | 0.00 | 74 | 1012.5 |
| 20260507172040 | 56 | 169 | 0.0 | 0.0 | 0.00 | 0.00 | 0.00 | 75 | 1012.6 |
| 20260507171538 | 56 | 84 | 0.0 | 0.0 | 0.00 | 0.00 | 0.00 | 76 | 1012.6 |
| 20260507171036 | 56 | 156 | 0.0 | 0.0 | 0.00 | 0.00 | 0.00 | 75 | 1012.6 |
| 20260507170533 | 56 | 148 | 0.0 | 0.0 | 0.00 | 0.00 | 0.00 | 73 | 1012.6 |
| 20260507170354 | 56 | 165 | 0.0 | 0.0 | 0.00 | 0.00 | 0.00 | 73 | 1012.6 |
| 20260507165535 | 56 | 136 | 0.0 | 0.0 | 0.00 | 0.00 | 0.00 | 75 | 1012.6 |
| 20260507165034 | 56 | 139 | 0.0 | 0.0 | 0.00 | 0.00 | 0.00 | 75 | 1012.6 |
| 20260507164836 | 56 | 121 | 0.0 | 0.0 | 0.00 | 0.00 | 0.00 | 78 | 1012.6 |
| 20260507164032 | 55 | 265 | 0.0 | 0.0 | 0.00 | 0.00 | 0.00 | 78 | 1012.6 |
| 20260507163534 | 55 | 114 | 0.0 | 0.0 | 0.00 | 0.00 | 0.00 | 77 | 1012.6 |
| 20260507163033 | 55 | 182 | 0.0 | 0.0 | 0.00 | 0.00 | 0.00 | 77 | 1012.7 |
| 20260507162532 | 55 | 124 | 0.0 | 0.0 | 0.00 | 0.00 | 0.00 | 78 | 1012.6 |
| 20260507162031 | 55 | 156 | 0.0 | 0.0 | 0.00 | 0.00 | 0.00 | 78 | 1012.6 |
| 20260507161532 | 55 | 94 | 0.0 | 0.0 | 0.00 | 0.01 | 0.00 | 79 | 1012.6 |
| 20260507161033 | 55 | 88 | 0.0 | 0.0 | 0.00 | 0.01 | 0.00 | 78 | 1012.6 |
| 20260507160530 | 55 | 86 | 0.0 | 0.0 | 0.00 | 0.01 | 0.00 | 78 | 1012.6 |
| 20260507160218 | 55 | 60 | 0.0 | 0.0 | 0.00 | 0.01 | 0.00 | 78 | 1012.7 |
| 20260507160143 | 55 | 85 | 0.0 | 0.0 | 0.00 | 0.01 | 0.00 | 78 | 1012.7 |
| 20260507155028 | 55 | 110 | 0.0 | 0.0 | 0.00 | 0.01 | 0.00 | 77 | 1012.8 |
| 20260507154526 | 56 | 136 | 0.0 | 0.0 | 0.00 | 0.01 | 0.00 | 78 | 1012.8 |
| 20260507154027 | 56 | 102 | 0.0 | 0.0 | 0.00 | 0.01 | 0.00 | 79 | 1012.8 |
| 20260507153850 | 56 | 136 | 0.0 | 0.0 | 0.00 | 0.01 | 0.00 | 78 | 1012.8 |
| 20260507153027 | 56 | 186 | 0.0 | 0.0 | 0.00 | 0.01 | 0.00 | 76 | 1012.9 |
| 20260507152834 | 57 | 22 | 0.0 | 0.0 | 0.00 | 0.01 | 0.00 | 77 | 1012.9 |
| 20260507152022 | 57 | 232 | 0.0 | 0.0 | 0.00 | 0.01 | 0.00 | 76 | 1012.9 |
| 20260507151523 | 58 | 84 | 0.0 | 0.0 | 0.00 | 0.02 | 0.00 | 75 | 1012.9 |
| 20260507151016 | 58 | 221 | 0.0 | 0.0 | 0.00 | 0.02 | 0.00 | 74 | 1012.9 |
| 20260507150511 | 58 | 131 | 0.0 | 0.0 | 0.00 | 0.03 | 0.00 | 76 | 1012.9 |
| 20260507150328 | 58 | 235 | 0.0 | 0.0 | 0.00 | 0.03 | 0.00 | 75 | 1012.9 |
| 20260507145510 | 59 | 246 | 0.0 | 0.0 | 0.00 | 0.03 | 0.00 | 73 | 1012.9 |
| 20260507145010 | 59 | 165 | 0.0 | 0.0 | 0.00 | 0.03 | 0.00 | 75 | 1013.0 |
| 20260507144825 | 59 | 252 | 0.0 | 0.0 | 0.00 | 0.03 | 0.00 | 76 | 1013.0 |
| 20260507144009 | 58 | 246 | 0.0 | 0.0 | 0.00 | 0.03 | 0.00 | 77 | 1013.0 |
| 20260507143510 | 58 | 145 | 0.0 | 0.0 | 0.00 | 0.04 | 0.00 | 79 | 1013.0 |
| 20260507143006 | 58 | 263 | 0.0 | 0.0 | 0.00 | 0.04 | 0.00 | 78 | 1013.1 |
| 20260507142506 | 57 | 257 | 0.0 | 0.0 | 0.00 | 0.04 | 0.00 | 81 | 1013.1 |
| 20260507142007 | 56 | 209 | 0.0 | 0.0 | 0.00 | 0.05 | 0.00 | 83 | 1013.1 |
| 20260507141504 | 54 | 244 | 0.0 | 0.0 | 0.00 | 0.05 | 0.00 | 84 | 1013.2 |
| 20260507141143 | 53 | 239 | 0.0 | 0.0 | 0.00 | 0.06 | 0.00 | 84 | 1013.4 |
| 20260507141103 | 54 | 260 | 0.0 | 0.0 | 0.00 | 0.06 | 0.00 | 84 | 1013.4 |
| 20260507140005 | 53 | 239 | 0.0 | 0.0 | 0.00 | 0.06 | 0.00 | 85 | 1013.4 |
| 20260507135506 | 53 | 248 | 0.0 | 0.0 | 0.00 | 0.06 | 0.00 | 85 | 1013.5 |
| 20260507135003 | 53 | 247 | 0.0 | 0.0 | 0.00 | 0.06 | 0.00 | 85 | 1013.5 |
| 20260507134456 | 52 | 247 | 0.0 | 0.0 | 0.00 | 0.06 | 0.00 | 84 | 1013.5 |
| 20260507133953 | 52 | 247 | 0.0 | 0.0 | 0.00 | 0.06 | 0.00 | 85 | 1013.6 |
| 20260507133454 | 52 | 247 | 0.0 | 0.0 | 0.00 | 0.07 | 0.00 | 84 | 1013.5 |
| 20260507132954 | 52 | 247 | 0.0 | 0.0 | 0.00 | 0.08 | 0.00 | 83 | 1013.5 |
| 20260507132453 | 52 | 248 | 0.0 | 0.0 | 0.00 | 0.09 | 0.00 | 84 | 1013.6 |
| 20260507131952 | 53 | 248 | 0.0 | 0.0 | 0.00 | 0.09 | 0.00 | 82 | 1013.6 |
| 20260507131451 | 53 | 253 | 0.0 | 0.0 | 0.00 | 0.09 | 0.00 | 81 | 1013.6 |
| 20260507130951 | 53 | 262 | 0.0 | 0.0 | 0.00 | 0.09 | 0.00 | 80 | 1013.7 |
| 20260507130817 | 53 | 1 | 0.0 | 0.0 | 0.00 | 0.09 | 0.00 | 79 | 1013.6 |
| 20260507130812 | 53 | 229 | 0.0 | 0.0 | 0.00 | 0.09 | 0.00 | 79 | 1013.6 |
| 20260507130056 | 53 | 223 | 0.0 | 0.0 | 0.00 | 0.09 | 0.00 | 79 | 1013.6 |
| 20260507124946 | 53 | 225 | 0.0 | 0.0 | 0.00 | 0.09 | 0.00 | 79 | 1013.6 |
| 20260507124445 | 53 | 259 | 0.0 | 0.0 | 0.00 | 0.11 | 0.00 | 79 | 1013.6 |
| 20260507123942 | 53 | 173 | 0.0 | 0.0 | 0.00 | 0.11 | 0.00 | 78 | 1013.6 |
| 20260507123444 | 54 | 250 | 0.0 | 0.0 | 0.00 | 0.11 | 0.00 | 77 | 1013.6 |
| 20260507122940 | 55 | 261 | 0.0 | 0.0 | 0.00 | 0.11 | 0.00 | 76 | 1013.6 |
| 20260507122439 | 55 | 268 | 0.0 | 0.0 | 0.00 | 0.11 | 0.00 | 77 | 1013.6 |
| 20260507121940 | 55 | 144 | 0.0 | 0.0 | 0.00 | 0.11 | 0.00 | 76 | 1013.6 |
| 20260507121438 | 55 | 142 | 0.0 | 0.0 | 0.00 | 0.11 | 0.00 | 77 | 1013.7 |
| 20260507120939 | 55 | 252 | 0.0 | 0.0 | 0.00 | 0.11 | 0.00 | 76 | 1013.7 |
| 20260507120437 | 56 | 244 | 0.0 | 0.0 | 0.00 | 0.11 | 0.00 | 76 | 1013.6 |
| 20260507115937 | 56 | 230 | 0.0 | 0.0 | 0.00 | 0.11 | 0.00 | 79 | 1013.6 |
| 20260507115439 | 56 | 227 | 0.0 | 0.0 | 0.00 | 0.11 | 0.00 | 80 | 1013.7 |
| 20260507115130 | 57 | 117 | 0.0 | 0.0 | 0.00 | 0.11 | 0.00 | 80 | 1013.7 |
| 20260507115042 | 57 | 235 | 0.0 | 0.0 | 0.00 | 0.11 | 0.00 | 80 | 1013.7 |
| 20260507113939 | 58 | 163 | 0.0 | 0.0 | 0.00 | 0.11 | 0.00 | 79 | 1013.7 |
| 20260507113435 | 59 | 234 | 0.0 | 0.0 | 0.00 | 0.11 | 0.00 | 80 | 1013.7 |
| 20260507112934 | 59 | 168 | 0.0 | 0.0 | 0.00 | 0.11 | 0.00 | 80 | 1013.7 |
| 20260507112434 | 59 | 100 | 0.0 | 0.0 | 0.00 | 0.11 | 0.00 | 82 | 1013.6 |
| 20260507111939 | 59 | 142 | 0.0 | 0.0 | 0.00 | 0.11 | 0.00 | 81 | 1013.7 |
| 20260507111433 | 58 | 24 | 0.0 | 0.0 | 0.00 | 0.11 | 0.00 | 83 | 1013.7 |
| 20260507110936 | 57 | 192 | 0.0 | 0.0 | 0.00 | 0.11 | 0.00 | 85 | 1013.7 |
| 20260507110437 | 56 | 85 | 0.0 | 0.0 | 0.00 | 0.11 | 0.00 | 87 | 1013.7 |
| 20260507105937 | 56 | 129 | 0.0 | 0.0 | 0.00 | 0.11 | 0.00 | 86 | 1013.7 |
| 20260507105437 | 56 | 69 | 0.0 | 0.0 | 0.00 | 0.11 | 0.00 | 86 | 1013.8 |
| 20260507104937 | 56 | 158 | 0.0 | 0.0 | 0.00 | 0.11 | 0.00 | 88 | 1013.7 |
| 20260507104436 | 56 | 67 | 0.0 | 0.0 | 0.00 | 0.11 | 0.00 | 89 | 1013.7 |
| 20260507103938 | 56 | 105 | 0.0 | 0.0 | 0.00 | 0.11 | 0.00 | 90 | 1013.7 |
| 20260507103437 | 55 | 138 | 0.0 | 0.0 | 0.00 | 0.11 | 0.00 | 92 | 1013.7 |
| 20260507102942 | 55 | 148 | 0.0 | 0.0 | 0.00 | 0.11 | 0.00 | 92 | 1013.7 |
| 20260507102439 | 55 | 165 | 0.0 | 0.0 | 0.00 | 0.11 | 0.00 | 93 | 1013.7 |
| 20260507101942 | 54 | 237 | 0.0 | 0.0 | 0.00 | 0.11 | 0.00 | 93 | 1013.7 |
| 20260507101750 | 54 | 236 | 0.0 | 0.0 | 0.00 | 0.11 | 0.00 | 93 | 1013.7 |
| 20260507100940 | 54 | 175 | 0.0 | 0.0 | 0.00 | 0.11 | 0.00 | 94 | 1013.7 |
| 20260507100435 | 54 | 152 | 0.0 | 0.0 | 0.00 | 0.11 | 0.00 | 95 | 1013.7 |
| 20260507095932 | 54 | 95 | 0.0 | 0.0 | 0.00 | 0.11 | 0.00 | 95 | 1013.7 |
| 20260507095434 | 53 | 228 | 0.0 | 0.0 | 0.00 | 0.11 | 0.00 | 95 | 1013.7 |
| 20260507094933 | 53 | 119 | 0.0 | 0.0 | 0.00 | 0.11 | 0.00 | 95 | 1013.8 |
| 20260507094434 | 52 | 122 | 0.0 | 0.0 | 0.00 | 0.11 | 0.00 | 95 | 1013.8 |
| 20260507093932 | 52 | 239 | 0.0 | 0.0 | 0.00 | 0.11 | 0.00 | 95 | 1013.8 |
| 20260507093432 | 52 | 238 | 0.0 | 0.0 | 0.00 | 0.11 | 0.00 | 95 | 1013.7 |
| 20260507092933 | 52 | 227 | 0.0 | 0.0 | 0.00 | 0.11 | 0.00 | 95 | 1013.7 |
| 20260507092430 | 52 | 280 | 0.0 | 0.0 | 0.00 | 0.11 | 0.00 | 95 | 1013.7 |
| 20260507091935 | 52 | 294 | 0.0 | 0.0 | 0.00 | 0.11 | 0.00 | 95 | 1013.7 |
| 20260507091435 | 52 | 252 | 0.0 | 0.0 | 0.00 | 0.11 | 0.00 | 95 | 1013.8 |
| 20260507090931 | 53 | 75 | 0.0 | 0.0 | 0.00 | 0.11 | 0.00 | 95 | 1013.7 |
| 20260507090429 | 52 | 74 | 0.0 | 0.0 | 0.00 | 0.11 | 0.00 | 95 | 1013.7 |
| 20260507085929 | 52 | 298 | 0.0 | 0.0 | 0.00 | 0.11 | 0.00 | 95 | 1013.7 |
| 20260507085434 | 52 | 166 | 0.0 | 0.0 | 0.00 | 0.11 | 0.00 | 95 | 1013.7 |
| 20260507084930 | 52 | 229 | 0.0 | 0.0 | 0.00 | 0.11 | 0.00 | 95 | 1013.7 |
| 20260507084427 | 52 | 339 | 0.0 | 0.0 | 0.00 | 0.11 | 0.00 | 95 | 1013.7 |
| 20260507083925 | 52 | 165 | 0.0 | 0.0 | 0.00 | 0.11 | 0.00 | 96 | 1013.7 |
| 20260507083426 | 52 | 255 | 0.0 | 0.0 | 0.00 | 0.11 | 0.00 | 95 | 1013.7 |
| 20260507082924 | 52 | 90 | 0.0 | 0.0 | 0.00 | 0.11 | 0.00 | 95 | 1013.7 |
| 20260507082423 | 52 | 352 | 0.0 | 0.0 | 0.00 | 0.11 | 0.00 | 95 | 1013.7 |
| 20260507081917 | 52 | 186 | 0.0 | 0.0 | 0.00 | 0.11 | 0.00 | 96 | 1013.7 |
| 20260507081418 | 52 | 152 | 0.0 | 0.0 | 0.00 | 0.11 | 0.00 | 96 | 1013.7 |
| 20260507080919 | 52 | 297 | 0.0 | 0.0 | 0.00 | 0.11 | 0.00 | 96 | 1013.7 |
| 20260507080418 | 51 | 171 | 0.0 | 0.0 | 0.00 | 0.11 | 0.00 | 96 | 1013.7 |
| 20260507080133 | 51 | 339 | 0.0 | 0.0 | 0.00 | 0.11 | 0.00 | 96 | 1013.6 |
| 20260507075409 | 51 | 85 | 0.0 | 0.0 | 0.00 | 0.11 | 0.00 | 96 | 1013.6 |
| 20260507074907 | 51 | 267 | 0.0 | 0.0 | 0.00 | 0.11 | 0.00 | 96 | 1013.6 |
| 20260507074410 | 51 | 182 | 0.0 | 0.0 | 0.00 | 0.11 | 0.00 | 96 | 1013.6 |
| 20260507073903 | 51 | 175 | 0.0 | 0.0 | 0.00 | 0.11 | 0.00 | 96 | 1013.6 |
| 20260507073712 | 51 | 172 | 0.0 | 0.0 | 0.00 | 0.11 | 0.00 | 96 | 1013.6 |
| 20260507072903 | 50 | 158 | 0.0 | 0.0 | 0.00 | 0.11 | 0.00 | 96 | 1013.5 |
| 20260507072402 | 50 | 158 | 0.0 | 0.0 | 0.00 | 0.11 | 0.00 | 96 | 1013.5 |
| 20260507071903 | 50 | 156 | 0.0 | 0.0 | 0.00 | 0.11 | 0.00 | 96 | 1013.5 |
| 20260507071404 | 50 | 175 | 0.0 | 0.0 | 0.00 | 0.11 | 0.00 | 96 | 1013.5 |
| 20260507070903 | 50 | 157 | 0.0 | 0.0 | 0.00 | 0.11 | 0.00 | 96 | 1013.4 |
| 20260507070400 | 49 | 15 | 0.0 | 0.0 | 0.00 | 0.11 | 0.00 | 96 | 1013.4 |
| 20260507070035 | 49 | 165 | 0.0 | 0.0 | 0.00 | 0.11 | 0.00 | 96 | 1013.3 |
| 20260507065951 | 49 | 165 | 0.0 | 0.0 | 0.00 | 0.11 | 0.00 | 96 | 1013.4 |
| 20260507064858 | 48 | 165 | 0.0 | 0.0 | 0.00 | 0.11 | 0.00 | 96 | 1013.4 |
| 20260507064356 | 48 | 165 | 0.0 | 0.0 | 0.00 | 0.11 | 0.00 | 96 | 1013.4 |
| 20260507064213 | 48 | 167 | 0.0 | 0.0 | 0.00 | 0.11 | 0.00 | 96 | 1013.4 |
| 20260507063351 | 47 | 168 | 0.0 | 0.0 | 0.00 | 0.11 | 0.00 | 96 | 1013.3 |
| 20260507062852 | 47 | 169 | 0.0 | 0.0 | 0.00 | 0.11 | 0.00 | 95 | 1013.3 |
| 20260507062348 | 47 | 159 | 0.0 | 0.0 | 0.00 | 0.11 | 0.00 | 95 | 1013.3 |
| 20260507061850 | 47 | 121 | 0.0 | 0.0 | 0.00 | 0.11 | 0.00 | 95 | 1013.3 |
| 20260507061350 | 47 | 143 | 0.0 | 0.0 | 0.00 | 0.11 | 0.00 | 95 | 1013.3 |
| 20260507060850 | 47 | 143 | 0.0 | 0.0 | 0.00 | 0.11 | 0.00 | 96 | 1013.2 |
| 20260507060705 | 47 | 143 | 0.0 | 0.0 | 0.00 | 0.11 | 0.00 | 96 | 1013.2 |
| 20260507060204 | 47 | 167 | 0.0 | 0.0 | 0.00 | 0.11 | 0.00 | 96 | 1013.2 |
| 20260507055345 | 47 | 172 | 0.0 | 0.0 | 0.00 | 0.11 | 0.00 | 96 | 1013.2 |
| 20260507054844 | 46 | 171 | 0.0 | 0.0 | 0.00 | 0.11 | 0.00 | 96 | 1013.1 |
| 20260507054340 | 46 | 168 | 0.0 | 0.0 | 0.00 | 0.11 | 0.00 | 96 | 1013.1 |
| 20260507053839 | 46 | 113 | 0.0 | 0.0 | 0.00 | 0.11 | 0.00 | 95 | 1013.1 |
| 20260507053339 | 46 | 111 | 0.0 | 0.0 | 0.00 | 0.11 | 0.00 | 95 | 1013.0 |
| 20260507052840 | 46 | 131 | 0.0 | 0.0 | 0.00 | 0.11 | 0.00 | 95 | 1013.0 |
| 20260507052338 | 46 | 131 | 0.0 | 0.0 | 0.00 | 0.11 | 0.00 | 95 | 1013.0 |
| 20260507051840 | 45 | 122 | 0.0 | 0.0 | 0.00 | 0.11 | 0.00 | 95 | 1013.0 |
| 20260507051334 | 45 | 123 | 0.0 | 0.0 | 0.00 | 0.11 | 0.00 | 95 | 1013.0 |
| 20260507050832 | 45 | 111 | 0.0 | 0.0 | 0.00 | 0.11 | 0.00 | 95 | 1012.9 |
| 20260507050321 | 45 | 108 | 0.0 | 0.0 | 0.00 | 0.11 | 0.00 | 95 | 1013.0 |
| 20260507045820 | 45 | 88 | 0.0 | 0.0 | 0.00 | 0.11 | 0.00 | 95 | 1013.0 |
| 20260507045320 | 45 | 167 | 0.0 | 0.0 | 0.00 | 0.11 | 0.00 | 95 | 1013.0 |
| 20260507044818 | 45 | 167 | 0.0 | 0.0 | 0.00 | 0.11 | 0.00 | 95 | 1012.9 |
| 20260507044318 | 44 | 167 | 0.0 | 0.0 | 0.00 | 0.11 | 0.00 | 95 | 1012.9 |
| 20260507043820 | 44 | 156 | 0.0 | 0.0 | 0.00 | 0.11 | 0.00 | 95 | 1012.8 |
| 20260507043318 | 44 | 160 | 0.0 | 0.0 | 0.00 | 0.11 | 0.00 | 95 | 1012.8 |
| 20260507042822 | 44 | 160 | 0.0 | 0.0 | 0.00 | 0.11 | 0.00 | 95 | 1012.8 |
| 20260507042323 | 44 | 160 | 0.0 | 0.0 | 0.00 | 0.11 | 0.00 | 95 | 1012.8 |
| 20260507041819 | 44 | 160 | 0.0 | 0.0 | 0.00 | 0.11 | 0.00 | 95 | 1012.7 |
| 20260507041318 | 44 | 160 | 0.0 | 0.0 | 0.00 | 0.11 | 0.00 | 95 | 1012.8 |
| 20260507041130 | 44 | 150 | 0.0 | 0.0 | 0.00 | 0.11 | 0.00 | 95 | 1012.9 |
| 20260507040314 | 44 | 150 | 0.0 | 0.0 | 0.00 | 0.11 | 0.00 | 95 | 1012.8 |
| 20260507040123 | 44 | 150 | 0.0 | 0.0 | 0.00 | 0.11 | 0.00 | 95 | 1012.8 |
| 20260507035310 | 44 | 150 | 0.0 | 0.0 | 0.00 | 0.11 | 0.00 | 95 | 1012.8 |
| 20260507034807 | 45 | 150 | 0.0 | 0.0 | 0.00 | 0.11 | 0.00 | 95 | 1012.8 |
| 20260507034308 | 44 | 150 | 0.0 | 0.0 | 0.00 | 0.11 | 0.00 | 95 | 1012.8 |
| 20260507033808 | 44 | 149 | 0.0 | 0.0 | 0.00 | 0.11 | 0.00 | 95 | 1012.7 |
| 20260507033308 | 44 | 148 | 0.0 | 0.0 | 0.00 | 0.11 | 0.00 | 95 | 1012.7 |
| 20260507032803 | 44 | 165 | 0.0 | 0.0 | 0.00 | 0.11 | 0.00 | 95 | 1012.7 |
| 20260507032306 | 43 | 163 | 0.0 | 0.0 | 0.00 | 0.11 | 0.00 | 95 | 1012.7 |
| 20260507031805 | 43 | 164 | 0.0 | 0.0 | 0.00 | 0.11 | 0.00 | 95 | 1012.7 |
| 20260507031434 | 43 | 183 | 0.0 | 0.0 | 0.00 | 0.11 | 0.00 | 94 | 1012.7 |
| 20260507031354 | 43 | 163 | 0.0 | 0.0 | 0.00 | 0.11 | 0.00 | 95 | 1012.7 |
| 20260507030302 | 43 | 183 | 0.0 | 0.0 | 0.00 | 0.11 | 0.00 | 94 | 1012.7 |
| 20260507025804 | 43 | 183 | 0.0 | 0.0 | 0.00 | 0.11 | 0.00 | 94 | 1012.6 |
| 20260507025306 | 43 | 183 | 0.0 | 0.0 | 0.00 | 0.11 | 0.00 | 94 | 1012.6 |
| 20260507024802 | 43 | 183 | 0.0 | 0.0 | 0.00 | 0.11 | 0.00 | 94 | 1012.6 |
| 20260507024305 | 44 | 183 | 0.0 | 0.0 | 0.00 | 0.11 | 0.00 | 94 | 1012.6 |
| 20260507023803 | 44 | 183 | 0.0 | 0.0 | 0.00 | 0.11 | 0.00 | 94 | 1012.5 |
| 20260507023304 | 44 | 183 | 0.0 | 0.0 | 0.00 | 0.11 | 0.00 | 94 | 1012.6 |
| 20260507023116 | 44 | 183 | 0.0 | 0.0 | 0.00 | 0.11 | 0.00 | 94 | 1012.5 |
| 20260507022306 | 44 | 183 | 0.0 | 0.0 | 0.00 | 0.11 | 0.00 | 94 | 1012.6 |
| 20260507021803 | 44 | 183 | 0.0 | 0.0 | 0.00 | 0.11 | 0.00 | 94 | 1012.5 |
| 20260507021623 | 45 | 183 | 0.0 | 0.0 | 0.00 | 0.11 | 0.00 | 94 | 1012.6 |
| 20260507020802 | 45 | 183 | 0.0 | 0.0 | 0.00 | 0.11 | 0.00 | 94 | 1012.6 |
| 20260507020306 | 45 | 183 | 0.0 | 0.0 | 0.00 | 0.11 | 0.00 | 94 | 1012.7 |
| 20260507015801 | 46 | 183 | 0.0 | 0.0 | 0.00 | 0.11 | 0.00 | 94 | 1012.6 |
| 20260507015306 | 46 | 183 | 0.0 | 0.0 | 0.00 | 0.11 | 0.00 | 94 | 1012.7 |
| 20260507014802 | 46 | 183 | 0.0 | 0.0 | 0.00 | 0.11 | 0.00 | 94 | 1012.6 |
| 20260507014302 | 46 | 183 | 0.0 | 0.0 | 0.00 | 0.11 | 0.00 | 94 | 1012.6 |
| 20260507013804 | 46 | 183 | 0.0 | 0.0 | 0.00 | 0.11 | 0.00 | 95 | 1012.6 |
| 20260507013302 | 46 | 183 | 0.0 | 0.0 | 0.00 | 0.11 | 0.00 | 95 | 1012.6 |
| 20260507013117 | 46 | 186 | 0.0 | 0.0 | 0.00 | 0.11 | 0.00 | 95 | 1012.6 |
| 20260507012306 | 46 | 147 | 0.0 | 0.0 | 0.00 | 0.11 | 0.00 | 94 | 1012.6 |
| 20260507011803 | 46 | 148 | 0.0 | 0.0 | 0.00 | 0.11 | 0.00 | 94 | 1012.6 |
| 20260507011303 | 46 | 148 | 0.0 | 0.0 | 0.00 | 0.11 | 0.00 | 94 | 1012.6 |
| 20260507010806 | 46 | 146 | 0.0 | 0.0 | 0.00 | 0.11 | 0.00 | 95 | 1012.6 |
| 20260507010307 | 46 | 146 | 0.0 | 0.0 | 0.00 | 0.11 | 0.00 | 94 | 1012.6 |
| 20260507005803 | 46 | 146 | 0.0 | 0.0 | 0.00 | 0.11 | 0.00 | 94 | 1012.6 |
| 20260507005300 | 46 | 146 | 0.0 | 0.0 | 0.00 | 0.11 | 0.00 | 95 | 1012.6 |
| 20260507004758 | 46 | 142 | 0.0 | 0.0 | 0.00 | 0.11 | 0.00 | 95 | 1012.6 |
| 20260507004257 | 46 | 142 | 0.0 | 0.0 | 0.00 | 0.11 | 0.00 | 95 | 1012.7 |
| 20260507003755 | 46 | 140 | 0.0 | 0.0 | 0.00 | 0.11 | 0.00 | 94 | 1012.7 |
| 20260507003255 | 46 | 120 | 0.0 | 0.0 | 0.00 | 0.11 | 0.00 | 94 | 1012.7 |
| 20260507002753 | 46 | 119 | 0.0 | 0.0 | 0.00 | 0.11 | 0.00 | 94 | 1012.7 |
| 20260507002253 | 46 | 119 | 0.0 | 0.0 | 0.00 | 0.11 | 0.00 | 94 | 1012.7 |
| 20260507001951 | 46 | 119 | 0.0 | 0.0 | 0.00 | 0.11 | 0.00 | 94 | 1012.9 |
| 20260507001900 | 46 | 119 | 0.0 | 0.0 | 0.00 | 0.11 | 0.00 | 94 | 1012.8 |
| 20260507001241 | 46 | 159 | 0.0 | 0.0 | 0.00 | 0.11 | 0.00 | 94 | 1013.0 |
| 20260507001236 | 46 | 159 | 0.0 | 0.0 | 0.00 | 0.11 | 0.00 | 94 | 1013.0 |
| 20260507001231 | 46 | 159 | 0.0 | 0.0 | 0.00 | 0.11 | 0.00 | 94 | 1013.0 |
| 20260507000846 | 46 | 159 | 0.0 | 0.0 | 0.00 | 0.11 | 0.00 | 94 | 1012.9 |
| 20260506234743 | 46 | 159 | 0.0 | 0.0 | 0.00 | 0.11 | 0.00 | 94 | 1013.0 |
| 20260506234245 | 46 | 159 | 0.0 | 0.0 | 0.00 | 0.11 | 0.00 | 94 | 1013.0 |
| 20260506233737 | 46 | 163 | 0.0 | 0.0 | 0.00 | 0.11 | 0.00 | 94 | 1013.0 |
| 20260506233237 | 46 | 163 | 0.0 | 0.0 | 0.00 | 0.11 | 0.00 | 94 | 1013.0 |
| 20260506232931 | 46 | 158 | 0.0 | 0.0 | 0.00 | 0.11 | 0.00 | 94 | 1012.9 |
| 20260506232832 | 46 | 163 | 0.0 | 0.0 | 0.00 | 0.11 | 0.00 | 94 | 1012.9 |
| 20260506231733 | 46 | 158 | 0.0 | 0.0 | 0.00 | 0.11 | 0.00 | 94 | 1012.9 |
| 20260506231412 | 46 | 158 | 0.0 | 0.0 | 0.00 | 0.11 | 0.00 | 94 | 1013.0 |
| 20260506231329 | 46 | 158 | 0.0 | 0.0 | 0.00 | 0.11 | 0.00 | 94 | 1013.0 |
| 20260506230550 | 46 | 158 | 0.0 | 0.0 | 0.00 | 0.11 | 0.00 | 94 | 1013.0 |
| 20260506230114 | 46 | 158 | 0.0 | 0.0 | 0.00 | 0.11 | 0.11 | 94 | 1012.9 |
| 20260506225540 | 46 | 158 | 0.0 | 0.0 | 0.00 | 0.11 | 0.11 | 94 | 1013.0 |
| 20260506225040 | 46 | 158 | 0.0 | 0.0 | 0.00 | 0.11 | 0.11 | 94 | 1013.0 |
| 20260506224227 | 46 | 158 | 0.0 | 0.0 | 0.00 | 0.11 | 0.11 | 93 | 1013.0 |
| 20260506224033 | 46 | 158 | 0.0 | 0.0 | 0.00 | 0.11 | 0.11 | 93 | 1013.0 |
| 20260506223222 | 46 | 158 | 0.0 | 0.0 | 0.00 | 0.11 | 0.11 | 93 | 1013.0 |
| 20260506222720 | 46 | 158 | 0.0 | 0.0 | 0.00 | 0.11 | 0.11 | 93 | 1013.0 |
| 20260506222218 | 46 | 158 | 0.0 | 0.0 | 0.00 | 0.11 | 0.11 | 93 | 1013.1 |
| 20260506222030 | 46 | 158 | 0.0 | 0.0 | 0.00 | 0.11 | 0.11 | 93 | 1013.1 |
| 20260506221536 | 46 | 158 | 0.0 | 0.0 | 0.00 | 0.11 | 0.11 | 93 | 1013.0 |
| 20260506220716 | 47 | 159 | 0.0 | 0.0 | 0.00 | 0.11 | 0.11 | 93 | 1013.0 |
| 20260506220213 | 47 | 159 | 0.0 | 0.0 | 0.00 | 0.11 | 0.11 | 93 | 1013.1 |
| 20260506220038 | 47 | 159 | 0.0 | 0.0 | 0.00 | 0.11 | 0.11 | 93 | 1013.0 |
| 20260506215214 | 47 | 159 | 0.0 | 0.0 | 0.00 | 0.11 | 0.11 | 93 | 1013.0 |
| 20260506215022 | 47 | 231 | 0.0 | 0.0 | 0.00 | 0.11 | 0.11 | 93 | 1013.0 |
| 20260506214530 | 47 | 231 | 0.0 | 0.0 | 0.00 | 0.11 | 0.11 | 94 | 1013.0 |
| 20260506213706 | 47 | 231 | 0.0 | 0.0 | 0.00 | 0.11 | 0.11 | 93 | 1013.0 |
| 20260506213206 | 47 | 117 | 0.0 | 0.0 | 0.00 | 0.11 | 0.11 | 93 | 1013.0 |
| 20260506212706 | 47 | 117 | 0.0 | 0.0 | 0.00 | 0.11 | 0.11 | 93 | 1013.0 |
| 20260506212205 | 47 | 117 | 0.0 | 0.0 | 0.00 | 0.11 | 0.11 | 93 | 1012.9 |
| 20260506211706 | 47 | 117 | 0.0 | 0.0 | 0.00 | 0.11 | 0.11 | 92 | 1012.9 |
| 20260506211205 | 47 | 117 | 0.0 | 0.0 | 0.00 | 0.11 | 0.11 | 93 | 1013.0 |
| 20260506210704 | 48 | 117 | 0.0 | 0.0 | 0.00 | 0.11 | 0.11 | 93 | 1012.9 |
| 20260506210204 | 48 | 117 | 0.0 | 0.0 | 0.00 | 0.11 | 0.11 | 93 | 1012.9 |
| 20260506205704 | 48 | 117 | 0.0 | 0.0 | 0.00 | 0.11 | 0.11 | 93 | 1013.0 |
| 20260506205204 | 48 | 117 | 0.0 | 0.0 | 0.00 | 0.11 | 0.11 | 93 | 1012.9 |
| 20260506204701 | 48 | 117 | 0.0 | 0.0 | 0.00 | 0.11 | 0.11 | 93 | 1012.9 |
| 20260506204200 | 48 | 117 | 0.0 | 0.0 | 0.00 | 0.11 | 0.11 | 93 | 1012.9 |
| 20260506203700 | 48 | 117 | 0.0 | 0.0 | 0.00 | 0.11 | 0.11 | 92 | 1012.9 |
| 20260506203204 | 49 | 117 | 0.0 | 0.0 | 0.00 | 0.11 | 0.11 | 92 | 1012.9 |
| 20260506202659 | 49 | 117 | 0.0 | 0.0 | 0.00 | 0.11 | 0.11 | 92 | 1012.9 |
| 20260506202157 | 49 | 117 | 0.0 | 0.0 | 0.00 | 0.11 | 0.11 | 92 | 1012.9 |
| 20260506202010 | 49 | 117 | 0.0 | 0.0 | 0.00 | 0.11 | 0.11 | 92 | 1012.8 |
| 20260506201155 | 49 | 117 | 0.0 | 0.0 | 0.00 | 0.11 | 0.11 | 92 | 1012.8 |